Location: Cosy Dell
(34.2789°N, 117.4537°W)
Time: 21:13:39
(UTC+00:00)

Iridium 4 Rocket - Pass Details

Date: 14 July 2020
Orbit: 583 x 906 km, 86.9° (Epoch: 13 August)

Event Time Altitude Azimuth Distance (km) Brightness Sun altitude
Exits shadow 08:43:09 49° 348° (NNW) 1,084 4.4 -33.0°
Drops below altitude 10° 08:47:06 10° 359° (N) 2,419 6.9 -32.8°
Sets 08:49:24 0° 0° (N) 3,309 7.8 -32.7°
